TimeEDT,TemperatureF,Dew PointF,Humidity,Sea Level PressureIn,VisibilityMPH,Wind Direction,Wind SpeedMPH,Gust SpeedMPH,PrecipitationIn,Events,Conditions,WindDirDegrees,DateUTC
12:53 AM,42.1,37.9,85,30.32,8.0,Calm,Calm,-,N/A,,Partly Cloudy,0,2013-05-05 04:53:00
1:24 AM,41.0,37.4,87,30.30,8.0,Calm,Calm,-,N/A,,Mostly Cloudy,0,2013-05-05 05:24:00
1:34 AM,39.2,37.4,93,30.30,7.0,Calm,Calm,-,N/A,,Scattered Clouds,0,2013-05-05 05:34:00
1:43 AM,39.2,37.4,93,30.30,7.0,Calm,Calm,-,N/A,,Mostly Cloudy,0,2013-05-05 05:43:00
1:53 AM,39.0,36.0,89,30.30,8.0,SW,3.5,-,N/A,,Partly Cloudy,230,2013-05-05 05:53:00
2:53 AM,37.9,36.0,93,30.29,6.0,Calm,Calm,-,N/A,,Clear,0,2013-05-05 06:53:00
3:17 AM,39.2,35.6,87,30.29,7.0,Calm,Calm,-,N/A,,Mostly Cloudy,0,2013-05-05 07:17:00
3:53 AM,39.0,36.0,89,30.29,7.0,Calm,Calm,-,N/A,,Overcast,0,2013-05-05 07:53:00
4:53 AM,41.0,37.9,89,30.29,7.0,Calm,Calm,-,N/A,,Overcast,0,2013-05-05 08:53:00
5:53 AM,41.0,37.9,89,30.30,7.0,ENE,3.5,-,N/A,,Overcast,70,2013-05-05 09:53:00
6:39 AM,41.0,37.4,87,30.30,6.0,ENE,3.5,-,N/A,,Scattered Clouds,60,2013-05-05 10:39:00
6:53 AM,41.0,37.9,89,30.30,6.0,East,3.5,-,N/A,,Clear,80,2013-05-05 10:53:00
7:53 AM,43.0,36.0,76,30.31,9.0,Variable,5.8,-,N/A,,Clear,0,2013-05-05 11:53:00
8:53 AM,46.9,36.0,66,30.32,10.0,NE,6.9,-,N/A,,Clear,50,2013-05-05 12:53:00
9:53 AM,51.1,36.0,56,30.31,10.0,ENE,9.2,-,N/A,,Clear,70,2013-05-05 13:53:00
10:53 AM,54.0,36.0,51,30.30,10.0,East,6.9,-,N/A,,Clear,100,2013-05-05 14:53:00
11:53 AM,57.0,36.0,45,30.28,10.0,Variable,3.5,-,N/A,,Clear,0,2013-05-05 15:53:00
12:53 PM,61.0,37.0,41,30.26,10.0,Variable,5.8,-,N/A,,Clear,0,2013-05-05 16:53:00
1:53 PM,64.0,37.0,37,30.25,10.0,ENE,9.2,-,N/A,,Clear,60,2013-05-05 17:53:00
2:53 PM,63.0,41.0,45,30.23,10.0,South,6.9,-,N/A,,Clear,180,2013-05-05 18:53:00
3:53 PM,63.0,41.0,45,30.22,10.0,SSE,11.5,19.6,N/A,,Clear,160,2013-05-05 19:53:00
4:53 PM,61.0,39.9,46,30.22,10.0,SSE,11.5,-,N/A,,Clear,150,2013-05-05 20:53:00
5:53 PM,59.0,39.9,49,30.22,10.0,SSE,9.2,16.1,N/A,,Clear,150,2013-05-05 21:53:00
6:53 PM,55.9,39.9,55,30.23,10.0,SE,9.2,-,N/A,,Clear,140,2013-05-05 22:53:00
7:53 PM,53.1,41.0,64,30.25,10.0,SSE,6.9,-,N/A,,Clear,150,2013-05-05 23:53:00
8:53 PM,51.1,41.0,68,30.26,10.0,South,3.5,-,N/A,,Clear,170,2013-05-06 00:53:00
9:53 PM,48.9,39.9,71,30.28,10.0,Calm,Calm,-,N/A,,Clear,0,2013-05-06 01:53:00
10:53 PM,46.0,39.0,76,30.27,10.0,Calm,Calm,-,N/A,,Clear,0,2013-05-06 02:53:00
11:53 PM,44.1,39.0,82,30.27,10.0,Calm,Calm,-,N/A,,Clear,0,2013-05-06 03:53:00